This is the latest recevied weather packets stored in our database for station/object S51UL-6. If no packets are shown the sender has not sent any weather packets the latest 10 day(s).
| Time | Temp. | Humidity | Pressure | Rain* | Wind** | Luminosity | Snow |
|---|---|---|---|---|---|---|---|
| 1777965217 | 18.89° C | 54% | 1012.3 hPa | 0 mm | - | - | - |
| 1777964914 | 18.33° C | 55% | 1012.2 hPa | 0 mm | - | - | - |
| 1777964615 | 18.33° C | 56% | 1012.2 hPa | 0 mm | - | - | - |
| 1777963714 | 17.78° C | 57% | 1012.5 hPa | 0 mm | - | - | - |
| 1777963414 | 17.22° C | 58% | 1012.4 hPa | 0 mm | - | - | - |
| 1777963114 | 17.22° C | 57% | 1012.5 hPa | 0 mm | - | - | - |
| 1777962814 | 16.67° C | 58% | 1012.4 hPa | 0 mm | - | - | - |
| 1777962214 | 16.67° C | 60% | 1012.5 hPa | 0 mm | - | - | - |
| 1777961916 | 16.67° C | 60% | 1012.4 hPa | 0 mm | - | - | - |
| 1777961615 | 16.11° C | 62% | 1012.4 hPa | 0 mm | - | - | - |
| 1777960715 | 13.33° C | 73% | 1012.5 hPa | 0 mm | - | - | - |
| 1777960415 | 12.78° C | 76% | 1012.4 hPa | 0 mm | - | - | - |
| 1777960115 | 11.67° C | 79% | 1012.6 hPa | 0 mm | - | - | - |
| 1777959815 | 10.56° C | 82% | 1012.5 hPa | 0 mm | - | - | - |
| 1777959215 | 8.33° C | 84% | 1012.6 hPa | 0 mm | - | - | - |
| 1777958916 | 7.78° C | 84% | 1012.6 hPa | 0 mm | - | - | - |
| 1777957715 | 5.56° C | 84% | 1012.6 hPa | 0 mm | - | - | - |
| 1777957415 | 5.56° C | 83% | 1012.4 hPa | 0 mm | - | - | - |
| 1777957116 | 5° C | 83% | 1012.5 hPa | 0 mm | - | - | - |
| 1777956816 | 5° C | 83% | 1012.6 hPa | 0 mm | - | - | - |
| 1777956516 | 4.44° C | 83% | 1012.5 hPa | 0 mm | - | - | - |
| 1777956216 | 4.44° C | 83% | 1012.6 hPa | 0 mm | - | - | - |
| 1777955916 | 4.44° C | 83% | 1012.6 hPa | 0 mm | - | - | - |
| 1777955317 | 3.89° C | 82% | 1012.5 hPa | 0 mm | - | - | - |
| 1777955016 | 3.89° C | 82% | 1012.6 hPa | 0 mm | - | - | - |
* Rain latest hour (hover to see other rain measurements)
** Current wind speed in m/s (hover to see current wind gust speed)